Regional Weather Roundup
Issued by NWS Northern Indiana

Home | Current Version | Previous Version | Graphics & Text | Print | Product List | Glossary On
Versions: 1 2 3 4 5 6 7 8 9 10 11 12 13 14 15 16 17 18 19 20 21 22 23 24 25 26 27 28 29 30 31 32 33 34 35 36 37 38 39 40 41 42 43 44 45 46 47 48 49 50
000
ASUS43 KIWX 210100
RWRIWX

KIWX WEATHER ROUNDUP
NATIONAL WEATHER SERVICE NORTHERN INDIANA
900 PM EDT SAT SEP 20 2014

NOTE: "FAIR" INDICATES FEW OR NO CLOUDS BELOW 12,000 FEET WITH NO
SIGNIFICANT WEATHER AND/OR OBSTRUCTIONS TO VISIBILITY.

* THESE STATIONS ARE NOT UNDER NWS QUALITY CONTROL. THEY ALSO MAY NOT
  REPORT WEATHER SUCH AS PRECIPITATION OR FOG.

INZ001>027-210200-
NORTHERN INDIANA

CITY           SKY/WX    TMP DP  RH WIND       PRES   REMARKS
GARY*          MOCLDY    73  66  78 S5        29.82S
VALPARAISO     MOCLDY    69  66  90 SW7       29.84S
SOUTH BEND     PTCLDY    66  63  90 SW9       29.83S
GOSHEN         CLOUDY   N/A N/A N/A S15       29.84S
WARSAW*        CLOUDY    64  64 100 S6        29.86F
ANGOLA*        MOCLDY    63  63 100 S8        29.86R
FORT WAYNE     TSTM      65  63  93 S14       29.89F

$$
INZ028>050-210200-
CENTRAL INDIANA

CITY           SKY/WX    TMP DP  RH WIND       PRES   REMARKS
LAFAYETTE      LGT RAIN  66  65  96 NE5       29.88F
KOKOMO*        CLOUDY    66  63  88 S10       29.88F
MUNCIE*        RAIN      67  62  84 N5        29.94R
INDIANAPOLIS   LGT RAIN  72  68  87 SW6       29.91F

$$
MIZ043>046-050>051-056>058-064>065-071>073-077>080-210200-
SOUTHWEST LOWER MICHIGAN

CITY           SKY/WX    TMP DP  RH WIND       PRES   REMARKS
BATTLE CREEK   MOCLDY    66  63  90 S10       29.82R
BENTON HARBOR  CLEAR     66  64  93 S7        29.80R
COLDWATER*     CLOUDY    64  62  94 S5        29.84R
HILLSDALE*     CLOUDY    64  64 100 SW8       29.85R
HOLLAND        CLEAR     66  63  90 S9        29.79R
GRAND RAPIDS   CLEAR     66  66 100 SW9       29.78R
KALAMAZOO      MOCLDY    66  63  90 S13       29.81S
STURGIS*       MOCLDY    63  61  94 S5        29.83R
THREE RIVERS*  FAIR      63  61  93 S5        29.83R

$$
OHZ001>008-015>018-024>025-210200-
NORTHWEST OHIO

CITY           SKY/WX    TMP DP  RH WIND       PRES   REMARKS
DEFIANCE       LGT RAIN N/A N/A N/A S13       29.88R
FINDLAY        RAIN      68  60  75 W24G31    29.93R
TOLEDO EXPRESS RAIN      64  62  93 S8        29.85F FOG
TOLEDO METCALF LGT RAIN  66  62  87 SW9       29.87F
LIMA           CLOUDY    74  61  63 NW17G25   29.94R

$$
AND FOR LAKE MICHIGAN COASTAL AND OPEN LAKE BUOY OBSERVATIONS

STATION/POSITION TEMP    WIND        PRES    VSBY  WAVE
                 AIR SEA DIR/SP/G                  HT/PER
                 (F)     (DEG/KT/KT) (MB)    (MI)  (FT/S)
CALUMET HARBOR    72     210/  5/  7 1008.2R
MICHIGAN CITY     69     170/ 11/ 14   N/A
SAINT JOSEPH      69     170/  7/ 12 1009.5F
SOUTH LAKE BUOY   66 63  230/ 12/ 14 1007.8R         2/ 4
4 MI NW BRIDGMAN  67 65  190/ 12/ 14   N/A           2/ 3
MICHIGAN CITY     67 65  190/ 10/ 14   N/A           1/ 3

$$
&&


USA.gov is the U.S. government's official web portal to all federal, state and local government web resources and services.